Location: Byhalia Creek
(34.8270°N, 89.8040°W)
Time: 20:46:03
(UTC+00:00)

Cosmos 1340 Rocket - Pass Details

Date: 22 April 2026
Orbit: 484 x 512 km, 81.2° (Epoch: 21 May)

Event Time Altitude Azimuth Distance (km) Brightness Sun altitude
Rises 10:48:57 0° 350° (N) 2,592 6.4 -6.6°
Reaches altitude 10° 10:51:04 10° 349° (NNW) 1,710 5.5 -6.2°
Maximum altitude 10:54:49 78° 262° (W) 519 2.6 -5.5°
Drops below altitude 10° 10:58:34 10° 177° (S) 1,713 5.2 -4.8°
Sets 11:00:41 0° 176° (S) 2,598 6.1 -4.4°
